Location: Sungai Lasa
(2.4500°N, 113.4500°E)
Time: 04:47:59
(UTC+00:00)

Cosmos 2333 Rocket - Pass Details

Date: 03 February 2023
Orbit: 837 x 864 km, 70.8° (Epoch: 26 March)

Event Time Altitude Azimuth Distance (km) Brightness Sun altitude
Rises 22:11:24 0° 343° (NNW) 3,425 5.0 -7.6°
Reaches altitude 10° 22:13:51 10° 343° (NNW) 2,492 4.3 -7.0°
Maximum altitude 22:19:35 85° 256° (WSW) 870 2.3 -5.6°
Drops below altitude 10° 22:25:21 10° 166° (SSE) 2,500 5.1 -4.2°
Sets 22:27:49 0° 166° (SSE) 3,436 5.8 -3.6°
